Terug naar catalogus

THORAD DELTA 1 DEB

ActiefLEO
NORAD 8156·DEBRIS·🇺🇸 United States

Gelanceerd Nov 15, 1974 vanaf Vandenberg Space Force Base

Loading…

Volgende Passages (komende 24 uur)

TLE

VersSource: Space-Track

Epoch: Sep 14, 2026, 10:40 UTC

1 08156U 74089W   26257.44465366  .00000060  00000-0  55567-3 0  9995
2 08156 101.9413 249.7941 0053152 184.2216 331.8974 12.68307921394614

Volg THORAD DELTA 1 DEB in realtime met AllMySat

Download on the App Store